• MPC Preparation (Info)

  • MPEC 2016-V51 : 2016 VQ1

    The following Minor Planet Electronic Circular may be linked-to from your own Web pages, but must not otherwise be redistributed electronically.

    A form allowing access to any MPEC is at the bottom of this page.


    Read MPEC 2016-V50 Read MPEC 2016-V52


    M.P.E.C. 2016-V51                                Issued 2016 Nov. 7, 11:50 UT
    
         The Minor Planet Electronic Circulars contain information on unusual
             minor planets and routine data on comets.  They are published
        on behalf of Division F of the International Astronomical Union by the
              Minor Planet Center, Smithsonian Astrophysical Observatory,
                              Cambridge, MA 02138, U.S.A.
    
                 Prepared using the Tamkin Foundation Computer Network
    
                                  MPC@CFA.HARVARD.EDU
                URL https://www.minorplanetcenter.net/    ISSN 1523-6714
    
                                       2016 VQ1
    
    Observations:
         K16V01Q* C2016 11 05.24713 03 36 24.63 +15 47 13.5          21.1 VqEV051G96
         K16V01Q  C2016 11 05.25161 03 36 24.35 +15 47 10.4          21.2 VqEV051G96
         K16V01Q  C2016 11 05.25589 03 36 23.97 +15 47 07.3          20.2 VqEV051G96
         K16V01Q  C2016 11 05.26191 03 36 23.57 +15 47 03.8          20.4 VqEV051G96
         K16V01Q  C2016 11 05.37937 03 36 14.72 +15 45 47.6          21.8 VqEV051I52
         K16V01Q  C2016 11 05.38744 03 36 14.09 +15 45 42.2          21.6 VqEV051I52
         K16V01Q  C2016 11 05.39218 03 36 13.78 +15 45 39.6          21.4 VqEV051I52
         K16V01Q  C2016 11 05.39808 03 36 13.31 +15 45 35.5          21.8 VqEV051I52
         K16V01Q  C2016 11 06.21999 03 35 15.78 +15 36 46.2          20.0 VqEV051G96
         K16V01Q  C2016 11 06.22613 03 35 15.32 +15 36 42.3          20.7 VqEV051G96
         K16V01Q  C2016 11 06.23191 03 35 14.87 +15 36 38.6          20.9 VqEV051G96
         K16V01Q  C2016 11 06.23723 03 35 14.48 +15 36 35.4          21.1 VqEV051G96
         K16V01Q  C2016 11 06.27939 03 35 11.32 +15 36 08.4          21.6 VqEV051G96
         K16V01Q  C2016 11 06.28228 03 35 11.08 +15 36 07.5          21.5 VqEV051G96
         K16V01Q  C2016 11 06.28518 03 35 10.87 +15 36 05.2          20.7 VqEV051G96
         K16V01Q KC2016 11 06.51590 03 34 53.70 +15 33 36.1          21.7 RoEV051291
         K16V01Q KC2016 11 06.51970 03 34 53.43 +15 33 33.7          21.6 RoEV051291
         K16V01Q KC2016 11 06.52348 03 34 53.17 +15 33 31.3          21.3 RoEV051291
         K16V01Q  C2016 11 07.31123 03 33 58.21 +15 25 13.8          20.6 VqEV051G96
         K16V01Q  C2016 11 07.31684 03 33 57.79 +15 25 10.4          20.8 VqEV051G96
         K16V01Q  C2016 11 07.32205 03 33 57.47 +15 25 06.4          20.7 VqEV051G96
         K16V01Q  C2016 11 07.32713 03 33 57.01 +15 25 04.1          20.0 VqEV051G96
    
    Observer details:
    291 LPL/Spacewatch II.  Observer A. F. Tubbiolo.  1.8-m f/2.7 reflector + CCD.
    G96 Mt. Lemmon Survey.  Observers A. R. Gibbs, R. A. Kowalski.  Measurers
        E. J. Christensen, D. C. Fuls, A. R. Gibbs, A. D. Grauer, J. A. Johnson,
        R. A. Kowalski, S. M. Larson, G. J. Leonard, R. G. Matheny, R. L. Seaman,
        F. C. Shelly.  1.5-m reflector + 10K CCD.
    I52 Steward Observatory, Mt. Lemmon Station.  Observer R. G. Matheny.
        Measurers E. J. Christensen, D. C. Fuls, A. R. Gibbs, A. D. Grauer,
        J. A. Johnson, R. A. Kowalski, S. M. Larson, G. J. Leonard, R. G. Matheny,
        R. L. Seaman, F. C. Shelly.  1.0-m reflector + CCD.
    
    Orbital elements:
    2016 VQ1                                                 Earth MOID = 0.2469 AU
    Epoch 2016 July 31.0 TT = JDT 2457600.5                 MPC
    M   2.14416              (2000.0)            P               Q
    n   0.20549367     Peri.  116.81521     +0.87776903     +0.47488481
    a   2.8440491      Node   214.93593     -0.46936993     +0.82596408
    e   0.5667240      Incl.    6.34551     -0.09598649     +0.30375608
    P   4.80           H   20.0           G   0.15           U   8
    Residuals in seconds of arc
    161105 G96  0.5-  0.3+    161106 G96  0.3+  0.0     161106 291  0.1-  0.1-
    161105 G96  0.3+  0.1+    161106 G96  0.3+  0.0     161106 291  0.1+  0.0
    161105 G96  0.5-  0.3-    161106 G96  0.0   0.1-    161107 G96  0.2-  0.1+
    161105 G96  0.2+  0.1+    161106 G96  0.1+  0.1+    161107 G96  0.2-  0.2+
    161105 I52  0.2+  0.2-    161106 G96  0.0   0.3-    161107 G96  0.8+  0.5-
    161105 I52  0.2-  0.3-    161106 G96  0.3-  0.6+    161107 G96  0.3-  0.4+
    161105 I52  0.5+  0.2+    161106 G96  0.2-  0.2+
    161105 I52  0.1+  0.1-    161106 291  0.1-  0.2-
    
    Ephemeris:
    2016 VQ1                 a,e,i = 2.84, 0.57, 6                   q = 1.2323
    Date    TT    R. A. (2000) Decl.     Delta      r     Elong.  Phase     V
    2016 10 08    04 01 17.0 +21 01 09   0.6574  1.5222   132.4    29.0    21.3
    ...
    2016 10 23    03 51 12.2 +18 17 23   0.6777  1.6182   150.1    17.8    21.1
    ...
    2016 10 31    03 42 34.1 +16 45 32   0.7031  1.6716   160.3    11.5    21.1
    ...
    2016 11 06    03 35 31.0 +15 39 12   0.7305  1.7124   167.9     7.0    21.0
    2016 11 07    03 34 20.2 +15 28 34   0.7358  1.7192   169.1     6.2    21.0
    2016 11 08    03 33 09.7 +15 18 06   0.7414  1.7261   170.3     5.5    21.0
    ...
    2016 11 14    03 26 20.4 +14 19 08   0.7794  1.7674   175.6     2.5    21.0
    ...
    2016 11 22    03 18 19.2 +13 13 08   0.8429  1.8231   169.6     5.6    21.4
    ...
    2016 12 07    03 08 28.8 +11 55 21   1.0001  1.9281   152.4    13.7    22.2
    
    A. U. Tomatic                (C) Copyright 2016 MPC           M.P.E.C. 2016-V51
    

    Read MPEC 2016-V50 Read MPEC 2016-V52


    MPEC number:

    Enter an MPEC number in one of the following forms:

    • 1997-B01 (the full form)
    • J97B01 (the packed version of the full form)
    • B01 (the abbreviated form)